Location: Homewood
(41.1836°S, 175.9581°E)
Time: 04:03:16
(UTC+00:00)

ARGOS - Pass Details

Date: 18 April 2024
Orbit: 818 x 834 km, 98.4° (Epoch: 22 May)

Event Time Altitude Azimuth Distance (km) Brightness Sun altitude
Rises 16:35:08 0° 11° (N) 3,341 6.4 -26.1°
Reaches altitude 10° 16:37:28 10° 10° (N) 2,417 5.6 -25.7°
Maximum altitude 16:42:50 78° 283° (WNW) 854 3.0 -24.7°
Drops below altitude 10° 16:48:18 10° 196° (SSW) 2,457 5.5 -23.7°
Sets 16:50:41 0° 194° (SSW) 3,400 6.3 -23.2°
